Location: Recife
(8.0585°S, 34.8848°W)
Time: 10:20:40
(UTC-03:00)

Vanguard 2 - Pass Details

Date: 22 April 2026
Orbit: 554 x 2894 km, 32.9° (Epoch: 8 May)

Event Time Altitude Azimuth Distance (km) Brightness Sun altitude
Rises 16:15:46 0° 327° (NNW) 3,418 11.7 13.3°
Reaches altitude 10° 16:18:03 10° 335° (NNW) 2,704 11.0 12.7°
Maximum altitude 16:24:12 39° 43° (NE) 1,889 9.4 11.2°
Drops below altitude 10° 16:33:58 10° 107° (ESE) 4,307 10.7 8.9°
Sets 16:38:36 0° 113° (ESE) 5,705 11.3 7.8°
